Regional Weather Roundup
Issued by NWS

Home | Current Version | Previous Version | Graphics & Text | Print | Product List | Glossary On
Versions: 1 2 3 4 5 6 7 8 9 10 11 12 13 14 15 16 17 18 19 20 21 22 23 24 25 26 27
000
ASUS45 KTFX 280610
RWRMT
MONTANA REGIONAL WEATHER ROUNDUP
NATIONAL WEATHER SERVICE GREAT FALLS MT
1200 AM MDT SUN AUG 28 2016

NOTE: "FAIR" INDICATES FEW OR NO CLOUDS BELOW 12000 FEET WITH NO
SIGNIFICANT WEATHER AND/OR OBSTRUCTIONS TO VISIBILITY.

MTZ001>007-043-280700-
WEST OF THE DIVIDE

CITY           SKY/WX    TMP DP  RH WIND       PRES   REMARKS
KALISPELL      CLOUDY    65  44  46 SE9       29.79R
MISSOULA       MOCLDY    72  40  31 CALM      29.88R
BUTTE          MOCLDY    54  30  40 SE6       30.00R
MULLAN PASS    MOCLDY    57  37  47 W10G21    29.99R
EUREKA           N/A     66  41  39 CALM      29.77R
HAMILTON         N/A     70  39  32 SW3       29.90R
LIBBY            N/A     73  43  33 SW5       29.78R
PLAINS           N/A     71  44  37 S2        29.83R
RONAN            N/A     68  46  45 CALM      29.90R
$$

MTZ008-052>055-280700-
SOUTHWEST MONTANA

CITY           SKY/WX    TMP DP  RH WIND       PRES   REMARKS
BOZEMAN        PTCLDY    58  37  45 E3        29.93R
DILLON         PTCLDY    61  29  29 S13       29.97R
W YELLOWSTONE  CLEAR     50  25  37 E3        30.14R
ENNIS          PTCLDY    68  25  19 S12G20    30.04R
THREE FORKS      N/A     61 -11   5 CALM      29.91R
TWIN BRIDGES     N/A     62  27  26 NE5       29.95R
$$

MTZ009-010-012-014-046-048-049-054-280700-
EAST SLOPES AND CENTRAL MONTANA

CITY           SKY/WX    TMP DP  RH WIND       PRES   REMARKS
CUT BANK       CLOUDY    66  42  41 W10       29.80R
GREAT FALLS    MOCLDY    64  37  36 SW9       29.81R
MALMSTROM AFB  MOCLDY    65  41  40 MISG      29.80S
HELENA         MOCLDY    75  36  24 SW5       29.85F
CHOTEAU          N/A     68  37  32 CALM      29.83S
CONRAD           N/A     62  44  51 CALM      29.85R
$$

MTZ011-013-016-021-045-047-050-051-280700-
NORTH CENTRAL MONTANA

CITY           SKY/WX    TMP DP  RH WIND       PRES   REMARKS
HAVRE          CLOUDY    71  42  35 CALM      29.71S
LEWISTOWN      CLOUDY    64  43  46 NE3       29.88R
N BAR RANCH    CLOUDY    63  37  39 VRB6      29.92R
CHINOOK          N/A     66  50  55 NE3       29.71F
$$

MTZ017>020-022>027-061-062-280700-
NORTHEAST MONTANA

CITY           SKY/WX    TMP DP  RH WIND       PRES   REMARKS
GLASGOW        MOCLDY    64  41  42 SE9       29.74R
JORDAN           N/A     68  38  33 S6        29.77S
SIDNEY         MOCLDY    65  49  56 CALM      29.80S
WOLF POINT     MOCLDY    61  44  53 NE5       29.76S
POPLAR           N/A     66  43  42 SE7       29.77R
SCOBEY           N/A     62  40  44 CALM      29.77
$$

MTZ028>42-056>058-280700-
SOUTHCENTRAL AND SOUTHEAST MONTANA

CITY           SKY/WX    TMP DP  RH WIND       PRES   REMARKS
BAKER          PTCLDY    64  49  57 S12       29.89R
BILLINGS       MOCLDY    72  34  24 W12       29.85S
LIVINGSTON     CLEAR     74  29  19 SW24G33   29.90S
MILES CITY     PTCLDY    67  37  33 S9        29.82S
EKALAKA          N/A     62  51  67 SE6       29.90S
FORSYTH          N/A     72  36  26 S6        29.80S
LAUREL           N/A     63  36  36 SW3       29.86S
ROUNDUP          N/A     68  35  29 W2        29.78S
$$

REGIONAL REPORTS...DAKOTAS

CITY           SKY/WX    TMP DP  RH WIND       PRES   REMARKS
WILLISTON      MOCLDY    69  47  45 S7        29.81S
MINOT            N/A     58  48  69 SE6       29.88S
DICKINSON      PTCLDY    60  49  66 S10       29.88R
CROSBY           N/A     66  45  45 S16       29.83S
WATFORD CITY     N/A     64  46  52 SE13      29.83S
BISMARCK       CLEAR     58  52  80 NE7       29.91F
GRAND FORKS      N/A     56  54  93 S7        29.97R
FARGO            N/A     64  59  83 SE9       29.99R
BUFFALO SD       N/A     67  54  63 E10       29.84F
RAPID CITY     CLEAR     62  52  69 SE6       29.93S
$$

REGIONAL REPORTS...WYOMING/IDAHO/WASHINGTON

CITY           SKY/WX    TMP DP  RH WIND       PRES   REMARKS
GILLETTE       CLEAR     53  41  63 S8        29.95F
SHERIDAN       PTCLDY    52  42  69 W5        29.91S
BUFFALO WY     CLEAR     66  29  24 S6        30.00S
CODY           MOCLDY    64  30  27 S8        30.00R
YELLOWSTONE LA   N/A     40  29  64 NW3       30.24S
IDAHO FALLS    CLEAR     58  34  40 SW8       30.02R
SALMON         PTCLDY    66  34  30 S8        29.92R
BOISE          CLEAR     74  30  19 SE12      29.88R
SPOKANE        PTCLDY    66  40  38 W16       29.82R
$$

REGIONAL REPORTS...ALBERTA

CITY           SKY/WX    TMP DP  RH WIND       PRES   REMARKS
EDMONTON       MOCLDY    55  52  88 W15G24    29.70S
CALGARY        MOCLDY    55  45  67 NW15G23   29.78R
LETHBRIDGE     CLEAR     54  46  76 NW7       29.78R
MEDICINE HAT   MOCLDY    61  55  82 NW10G20   29.73R
WATERTON GATE    N/A     63  41  45 SW6         N/A
CARDSTON         N/A     52  46  82 N5          N/A
MILK RIVER       N/A     59  50  72 N17G28      N/A
ONEFOUR          N/A     70  39  32 NW13        N/A
$$

REGIONAL REPORTS...SASKATCHEWAN

CITY           SKY/WX    TMP DP  RH WIND       PRES   REMARKS
SWIFT CURRENT  CLOUDY    63  50  63 S10       29.67S
REGINA         CLOUDY    63  45  51 SE16      29.75S
SASKATOON      CLOUDY    64  52  63 SE15      29.59F
CYPRESS HILLS    N/A     63  39  42 W5          N/A
VAL MARIE        N/A     61  45  55 S7          N/A
ROCKGLEN         N/A     64  41  42 S10         N/A
ASSINIBOIA       N/A     55  52  88 W8          N/A
$$




USA.gov is the U.S. government's official web portal to all federal, state and local government web resources and services.